TimeMST,TemperatureF,Dew PointF,Humidity,Sea Level PressureIn,VisibilityMPH,Wind Direction,Wind SpeedMPH,Gust SpeedMPH,PrecipitationIn,Events,Conditions,WindDirDegrees,DateUTC
12:52 AM,41.0,36.0,82,29.62,10.0,South,18.4,26.5,N/A,,Overcast,180,2012-11-10 07:52:00
1:52 AM,41.0,35.1,79,29.59,10.0,South,13.8,-,0.00,,Mostly Cloudy,190,2012-11-10 08:52:00
2:52 AM,41.0,33.1,73,29.55,10.0,South,18.4,28.8,N/A,,Mostly Cloudy,180,2012-11-10 09:52:00
3:52 AM,41.0,34.0,76,29.54,10.0,SSW,18.4,24.2,N/A,,Overcast,200,2012-11-10 10:52:00
4:52 AM,39.9,34.0,79,29.52,10.0,South,13.8,-,N/A,,Mostly Cloudy,180,2012-11-10 11:52:00
5:52 AM,39.9,33.1,77,29.49,10.0,South,20.7,29.9,N/A,,Overcast,190,2012-11-10 12:52:00
6:52 AM,41.0,34.0,76,29.47,10.0,South,27.6,35.7,N/A,,Overcast,190,2012-11-10 13:52:00
7:47 AM,33.8,32.0,93,29.64,1.2,West,26.5,52.9,0.00,Snow,Light Snow,260,2012-11-10 14:47:00
7:49 AM,33.8,30.2,87,29.64,0.8,West,24.2,52.9,0.00,Snow,Light Snow,260,2012-11-10 14:49:00
7:52 AM,33.1,30.9,92,29.58,0.5,West,25.3,32.2,0.02,Fog-Snow-Thunderstorm,Snow,270,2012-11-10 14:52:00
7:58 AM,33.8,32.0,93,29.64,1.0,West,18.4,32.2,0.02,Snow-Thunderstorm,Light Snow,260,2012-11-10 14:58:00
8:02 AM,33.8,32.0,93,29.64,3.0,WSW,17.3,29.9,0.02,Snow-Thunderstorm,Light Snow,250,2012-11-10 15:02:00
8:10 AM,33.8,32.0,93,29.65,9.0,WSW,16.1,24.2,0.02,Snow,Light Snow,240,2012-11-10 15:10:00
8:48 AM,33.8,33.8,100,29.64,9.0,SSW,12.7,-,0.03,,Overcast,200,2012-11-10 15:48:00
8:52 AM,34.0,33.1,96,29.57,10.0,South,12.7,-,0.03,,Overcast,190,2012-11-10 15:52:00
9:00 AM,35.6,35.6,100,29.63,10.0,South,16.1,21.9,N/A,,Mostly Cloudy,190,2012-11-10 16:00:00
9:52 AM,39.0,33.1,79,29.55,10.0,SSW,23.0,31.1,N/A,,Clear,210,2012-11-10 16:52:00
10:26 AM,39.2,24.8,56,29.66,10.0,West,32.2,38.0,N/A,,Clear,270,2012-11-10 17:26:00
10:52 AM,37.9,21.0,51,29.60,10.0,West,23.0,32.2,N/A,,Partly Cloudy,260,2012-11-10 17:52:00
11:52 AM,35.1,17.1,48,29.65,10.0,SW,24.2,33.4,N/A,,Partly Cloudy,230,2012-11-10 18:52:00
12:52 PM,33.1,12.9,43,29.65,10.0,WSW,24.2,31.1,N/A,,Mostly Cloudy,240,2012-11-10 19:52:00
1:52 PM,35.1,3.9,27,29.61,10.0,SW,23.0,32.2,N/A,,Partly Cloudy,230,2012-11-10 20:52:00
2:52 PM,33.1,10.0,38,29.63,10.0,West,18.4,29.9,N/A,,Scattered Clouds,270,2012-11-10 21:52:00
3:52 PM,30.0,9.0,41,29.67,10.0,WSW,16.1,-,N/A,,Clear,250,2012-11-10 22:52:00
4:52 PM,26.1,6.1,43,29.71,10.0,West,21.9,26.5,N/A,,Clear,270,2012-11-10 23:52:00
5:52 PM,23.0,8.1,53,29.75,10.0,SW,12.7,-,N/A,,Clear,220,2012-11-11 00:52:00
6:52 PM,21.9,6.1,51,29.77,10.0,West,10.4,-,N/A,,Clear,260,2012-11-11 01:52:00
7:52 PM,21.9,6.1,51,29.80,10.0,WSW,15.0,-,N/A,,Clear,250,2012-11-11 02:52:00
8:52 PM,19.0,8.1,62,29.82,10.0,West,11.5,-,N/A,,Clear,280,2012-11-11 03:52:00
9:52 PM,16.0,8.1,71,29.81,10.0,Calm,Calm,-,N/A,,Clear,0,2012-11-11 04:52:00
10:52 PM,15.1,7.0,70,29.82,10.0,SSW,8.1,-,N/A,,Clear,210,2012-11-11 05:52:00
11:52 PM,10.9,5.0,77,29.87,10.0,NE,5.8,-,N/A,,Clear,40,2012-11-11 06:52:00